Location: Krasnoyarskiy
(51.1133°N, 71.6497°E)
Time: 12:29:43
(UTC+00:00)

FLOCK 4Y 23 - Visible Passes

Search period start: 25 September 2023 00:00
Search period end: 05 October 2023 00:00
Orbit: 495 x 515 km, 97.5° (Epoch: 24 September)

Date Brightness Start Highest point End Pass type
(mag) Time Alt. Az. Time Alt. Az. Time Alt. Az.
25 Sep ? 15:58:24 27° N 15:58:24 27° N 16:00:12 10° N visible
26 Sep ? 15:40:21 24° NNE 15:40:21 24° NNE 15:42:04 10° N visible
26 Sep ? 17:15:08 11° NW 17:15:08 11° NW 17:15:19 10° NW visible
27 Sep ? 15:22:15 20° NNE 15:22:15 20° NNE 15:23:49 10° N visible
27 Sep ? 16:57:03 14° NW 16:57:03 14° NW 16:57:42 10° NW visible
28 Sep ? 15:04:08 16° NE 15:04:08 16° NE 15:05:23 10° NNE visible
28 Sep ? 16:38:56 17° NNW 16:38:56 17° NNW 16:39:52 10° NNW visible
29 Sep ? 14:46:01 12° NE 14:46:01 12° NE 14:46:38 10° NNE visible
29 Sep ? 16:20:48 18° NNW 16:20:48 18° NNW 16:21:54 10° NNW visible
30 Sep ? 16:02:38 19° N 16:02:38 19° N 16:03:48 10° N visible
01 Oct ? 15:44:28 18° N 15:44:28 18° N 15:45:34 10° N visible
02 Oct ? 15:26:16 16° NNE 15:26:16 16° NNE 15:27:13 10° N visible
03 Oct ? 15:08:02 13° NNE 15:08:02 13° NNE 15:08:43 10° NNE visible
03 Oct ? 16:42:49 12° NNW 16:42:49 12° NNW 16:43:05 10° NNW visible
04 Oct ? 14:49:48 10° NNE 14:49:48 10° NNE 14:49:56 10° NNE visible
04 Oct ? 16:24:35 13° NNW 16:24:35 13° NNW 16:25:01 10° NNW visible
